カタログに戻る

STARLINK-37229

運用中通信SSO
NORAD 69659·PAYLOAD·🇺🇸 United States

打ち上げ Jun 21, 2026 から Vandenberg Space Force Base

Loading…

次のパス (今後24時間)

TLE

最新Source: CelesTrak SupGP

元期: Sep 15, 2026, 04:08 UTC

1 69659C 26143L   26258.17270833 -.00054436  00000+0 -16900-2 0  2584
2 69659  97.2837 301.3829 0001028  97.2263 218.9493 15.33463361    11

AllMySatでSTARLINK-37229をリアルタイム追跡

Download on the App Store